SL-6 R/B(2)

Last updated on Wed Nov 05 2025 00:02:14 GMT+0000 (Coordinated Universal Time)

1 20666U 90055D 25308.37706841 .00002524 00000+0 20211-3 0 9994 2 20666 62.7836 319.7389 0010657 274.4454 85.5428 15.02784979919354
UTC large
Height (km)
Speed (km/s)
/
Latitude / Longitude
Inclination (degrees)
Orbital Period (minutes)
Azimuth
Elevation
Range (km)
Doppler Factor

Next 0 passes for location: London (51.5072 / 0.1276)

Sorry there are no passes over London.